Location: Reutlingen
(48.4911°N, 9.2587°E)
Time: 10:07:15
(UTC+01:00)

ISS - Pass Details

Date: 09 January 2018
Orbit: 402 x 407 km, 51.6° (Epoch: 21 January)

Event Time Altitude Azimuth Distance (km) Brightness Sun altitude
Exits shadow 05:48:30 37° 55° (NE) 657 -2.5 -23.1°
Drops below altitude 10° 05:50:49 10° 84° (E) 1,469 0.0 -22.7°
Sets 05:52:57 0° 90° (E) 2,329 1.5 -22.4°
